Watertown, SD

2:16 AM CST on November 21, 2019 (GMT -0600)
Watertown Municipal

Weather History for KATY - October, 2019

Change the Weather History Date:

Tuesday, October 22, 2019

  Actual Average Record
Temperature  
Mean Temperature 38 °F 43 °F  
Max Temperature 46 °F 54 °F 78 °F (1915)
Min Temperature 29 °F 32 °F 13 °F (1936)
Degree Days  
Heating Degree Days 27    
Month to date heating degree days 455  
Since 1 July heating degree days 607  
Cooling Degree Days 0    
Month to date cooling degree days 0  
Year to date cooling degree days 466  
Moisture  
Dew Point 30 °F    
Average Humidity 75    
Maximum Humidity 92    
Minimum Humidity 49    
Precipitation  
Precipitation T in 0.05 in 1.15 in (2004)
Month to date precipitation 2.29 1.48  
Year to date precipitation 31.71 20.35  
Snow  
Snow T in 0.10 in 3.00 in (2002)
Month to date snowfall 1.5 0.9  
Since 1 July snowfall 1.5 0.9  
Snow Depth 0.00 in    
Sea Level Pressure  
Sea Level Pressure 29.74 in    
Wind  
Wind Speed 20 mph ()    
Max Wind Speed 32 mph    
Max Gust Speed 44 mph    
Visibility 10.0 miles    
Events      
T = Trace of Precipitation, MM = Missing Value Source: Averaged Metar Reports

Daily Weather History Graph

Daily Weather History Graph

Search for Another Location

Airport or City:

Astronomy

Oct. 22, 2019 Rise Set
Actual Time 7:53 AM CDT 6:32 PM CDT
Civil Twilight 7:23 AM CDT 7:02 PM CDT
Nautical Twilight 6:49 AM CDT 7:36 PM CDT
Astronomical Twilight 6:15 AM CDT 8:10 PM CDT
Moon 12:42 AM CDT (10/22) 4:02 PM CDT (10/22)
Length of Visible Light 11h 38m
Length of Day
10h 39m
Last Quarter, 37% of the Moon is Illuminated
Oct 22
Last Quarter
Oct 27
New
Nov 4
First Quarter
Nov 12
Full
Nov 19
Last Quarter

Hourly Weather History & Observations

Time (CDT) Temp. Windchill Dew Point Humidity Pressure Visibility Wind Dir Wind Speed Gust Speed Precip Events Conditions
12:53 AM 37.9 °F 25.9 °F 35.1 °F 89% 29.65 in 10.0 mi NW 28.8 mph 42.6 mph N/A   Overcast
1:53 AM 37.9 °F 26.1 °F 34.0 °F 86% 29.66 in 10.0 mi NW 27.6 mph 38.0 mph N/A   Overcast
2:33 AM 37.9 °F 27.6 °F 34.0 °F 86% 29.64 in 10.0 mi NW 20.7 mph 36.8 mph N/A   Overcast
2:53 AM 37.0 °F 26.2 °F 34.0 °F 89% 29.68 in 10.0 mi NW 21.9 mph 32.2 mph 0.00 in   Overcast
3:43 AM 36.0 °F 24.4 °F 33.1 °F 89% 29.64 in 10.0 mi NW 23.0 mph 35.7 mph 0.00 in   Overcast
3:53 AM 36.0 °F 24.7 °F 33.1 °F 89% 29.68 in 10.0 mi NW 21.9 mph 31.1 mph 0.00 in   Overcast
4:16 AM 36.0 °F 24.2 °F 33.1 °F 89% 29.65 in 10.0 mi NW 24.2 mph 41.4 mph N/A   Overcast
4:53 AM 36.0 °F 24.4 °F 32.0 °F 86% 29.70 in 10.0 mi WNW 23.0 mph 36.8 mph N/A   Overcast
5:37 AM 35.1 °F 22.5 °F 30.9 °F 85% 29.67 in 10.0 mi WNW 26.5 mph 36.8 mph N/A   Overcast
5:53 AM 34.0 °F 21.5 °F 30.0 °F 85% 29.72 in 10.0 mi WNW 24.2 mph 35.7 mph N/A   Overcast
6:53 AM 34.0 °F 22.7 °F 28.9 °F 82% 29.73 in 10.0 mi WNW 19.6 mph 35.7 mph N/A   Clear
7:53 AM 34.0 °F 22.1 °F 28.0 °F 79% 29.74 in 10.0 mi WNW 21.9 mph 29.9 mph N/A   Clear
8:53 AM 35.1 °F 23.5 °F 27.0 °F 72% 29.76 in 10.0 mi WNW 21.9 mph 35.7 mph N/A   Clear
9:53 AM 37.0 °F 25.9 °F 28.0 °F 70% 29.77 in 10.0 mi NW 23.0 mph 36.8 mph N/A   Clear
10:53 AM 39.9 °F 29.5 °F 30.0 °F 68% 29.77 in 10.0 mi NW 24.2 mph 40.3 mph N/A   Clear
11:53 AM 43.0 °F 33.1 °F 30.0 °F 60% 29.77 in 10.0 mi NW 26.5 mph 36.8 mph N/A   Clear
12:53 PM 45.0 °F 35.4 °F 30.0 °F 56% 29.77 in 10.0 mi NW 28.8 mph 41.4 mph N/A   Partly Cloudy
1:53 PM 45.0 °F 36.2 °F 30.0 °F 56% 29.76 in 10.0 mi NW 24.2 mph 39.1 mph N/A   Partly Cloudy
2:53 PM 46.9 °F - 30.0 °F 52% 29.76 in 10.0 mi NW 23.0 mph 35.7 mph N/A   Partly Cloudy
3:53 PM 46.0 °F 37.6 °F 28.9 °F 51% 29.76 in 10.0 mi WNW 24.2 mph 35.7 mph N/A   Clear
4:53 PM 45.0 °F 37.1 °F 28.9 °F 53% 29.77 in 10.0 mi WNW 19.6 mph 34.5 mph N/A   Clear
5:53 PM 44.1 °F 36.8 °F 30.0 °F 58% 29.78 in 10.0 mi WNW 16.1 mph 26.5 mph N/A   Clear
6:53 PM 41.0 °F 35.2 °F 30.0 °F 65% 29.80 in 10.0 mi NW 9.2 mph - N/A   Clear
7:53 PM 37.9 °F 32.7 °F 30.0 °F 73% 29.81 in 10.0 mi WNW 6.9 mph - N/A   Clear
8:53 PM 36.0 °F 31.1 °F 30.0 °F 79% 29.81 in 10.0 mi WNW 5.8 mph - N/A   Clear
9:53 PM 34.0 °F 28.8 °F 28.9 °F 82% 29.82 in 10.0 mi NW 5.8 mph - N/A   Clear
10:53 PM 34.0 °F 28.8 °F 28.0 °F 79% 29.81 in 10.0 mi WNW 5.8 mph - N/A   Clear
11:53 PM 33.1 °F 27.7 °F 27.0 °F 78% 29.81 in 10.0 mi NW 5.8 mph - N/A   Clear